Satellite-Ground Cal/Val Region Overpasses Predictions

Prediction of Satellite NPP Overpassing Cal/Val Region: PacNW

Region Location: (Latitude: 10.00, Longitude: 139.50) to (Latitude: 22.70, Longitude: 165.60).

Table of predicted overpasses for the next 14.0 days since TLE Epoch: 11/4/2022
Interval Starting Time Starting Location Ending Time Ending Location
1 11/05/2022 02:11:09 ( 19.26, 165.59) 11/05/2022 02:12:07 ( 22.66, 164.76)
2 11/05/2022 03:50:02 ( 10.05, 142.39) 11/05/2022 03:53:28 ( 22.14, 139.51)
3 11/05/2022 14:40:25 ( 22.66, 165.01) 11/05/2022 14:44:00 ( 10.04, 162.00)
4 11/05/2022 16:21:55 ( 22.65, 139.63) 11/05/2022 16:22:03 ( 22.18, 139.51)
5 11/06/2022 03:31:00 ( 10.05, 147.15) 11/06/2022 03:34:35 ( 22.67, 144.14)
6 11/06/2022 16:02:53 ( 22.66, 144.39) 11/06/2022 16:06:28 ( 10.04, 141.39)
7 11/07/2022 03:11:58 ( 10.04, 151.91) 11/07/2022 03:15:33 ( 22.66, 148.90)
8 11/07/2022 15:43:50 ( 22.66, 149.16) 11/07/2022 15:47:25 ( 10.04, 146.15)
9 11/08/2022 02:52:55 ( 10.04, 156.67) 11/08/2022 02:56:30 ( 22.66, 153.67)
10 11/08/2022 15:24:48 ( 22.66, 153.92) 11/08/2022 15:28:23 ( 10.04, 150.91)
11 11/09/2022 02:33:53 ( 10.04, 161.43) 11/09/2022 02:37:28 ( 22.66, 158.43)
12 11/09/2022 15:05:45 ( 22.66, 158.68) 11/09/2022 15:09:20 ( 10.04, 155.67)
13 11/10/2022 02:15:35 ( 12.69, 165.59) 11/10/2022 02:18:25 ( 22.67, 163.19)
14 11/10/2022 03:56:20 ( 10.05, 140.82) 11/10/2022 03:57:56 ( 15.69, 139.51)
15 11/10/2022 14:46:43 ( 22.65, 163.44) 11/10/2022 14:50:18 ( 10.03, 160.43)
16 11/11/2022 03:37:18 ( 10.06, 145.58) 11/11/2022 03:40:53 ( 22.68, 142.57)
17 11/11/2022 14:30:46 ( 11.73, 165.59) 11/11/2022 14:31:15 ( 10.03, 165.20)
18 11/11/2022 16:09:10 ( 22.64, 142.83) 11/11/2022 16:12:45 ( 10.02, 139.82)
19 11/12/2022 03:18:14 ( 10.00, 150.36) 11/12/2022 03:21:50 ( 22.68, 147.33)
20 11/12/2022 15:50:07 ( 22.70, 147.60) 11/12/2022 15:53:43 ( 10.02, 144.58)
21 11/13/2022 02:59:12 ( 10.01, 155.12) 11/13/2022 03:02:48 ( 22.69, 152.10)
22 11/13/2022 15:31:04 ( 22.69, 152.36) 11/13/2022 15:34:40 ( 10.01, 149.34)
23 11/14/2022 02:40:09 ( 10.02, 159.88) 11/14/2022 02:43:45 ( 22.70, 156.86)
24 11/14/2022 15:12:02 ( 22.68, 157.12) 11/14/2022 15:15:38 ( 10.00, 154.10)
25 11/15/2022 02:21:07 ( 10.02, 164.64) 11/15/2022 02:24:42 ( 22.65, 161.63)
26 11/15/2022 14:53:00 ( 22.67, 161.88) 11/15/2022 14:56:35 ( 10.05, 158.88)
27 11/16/2022 03:43:34 ( 10.04, 144.02) 11/16/2022 03:47:09 ( 22.66, 141.02)
28 11/16/2022 14:35:10 ( 18.38, 165.59) 11/16/2022 14:37:32 ( 10.05, 163.64)
29 11/16/2022 16:15:27 ( 22.66, 141.27) 11/16/2022 16:17:31 ( 15.38, 139.50)
30 11/17/2022 03:24:32 ( 10.05, 148.78) 11/17/2022 03:28:07 ( 22.68, 145.78)
31 11/17/2022 15:56:25 ( 22.64, 146.03) 11/17/2022 16:00:00 ( 10.03, 143.02)
32 11/18/2022 03:05:28 ( 10.01, 153.56) 11/18/2022 03:09:04 ( 22.69, 150.53)
